1515553200.26,16516,9.44,73696.8,-1.99,-5.39,-5.85,0,*53
1515553201.51,16517,9.44,73690.8,-1.99,-5.47,-5.77,0,*56
1515553202.73,16518,9.44,73688.5,-2.01,-5.47,-5.85,0,*56
1515553203.97,16519,9.44,73692.5,-1.99,-5.39,-5.77,0,*51
1515553205.19,16520,9.44,73696.3,-2.01,-5.39,-5.77,0,*59
1515553206.41,16521,9.44,73692.0,-2.01,-5.35,-5.77,0,*54
1515553207.65,16522,9.44,73694.3,-1.99,-5.39,-5.77,0,*59
1515553208.9,16523,9.44,73702.8,-1.99,-5.39,-5.85,0,*55
1515553210.14,16524,9.44,73696.8,-1.99,-5.35,-5.73,0,*57
1515553211.38,16525,9.44,73698.0,-2.01,-5.31,-5.73,0,*50
1515553212.66,16526,9.44,73696.0,-1.99,-5.31,-5.73,0,*51
1515553213.93,16527,9.44,73692.0,-1.99,-5.31,-5.77,0,*54
1515553215.14,16528,9.44,73694.5,-2.01,-5.35,-5.73,0,*59
1515553216.41,16529,9.44,73694.0,-1.99,-5.31,-5.73,0,*5E
1515553217.69,16530,9.44,73694.3,-1.99,-5.23,-5.65,0,*52
1515553218.93,16531,9.44,73694.5,-2.01,-5.23,-5.65,0,*51
1515553220.2,16532,9.44,73688.8,-1.99,-5.23,-5.73,0,*57
1515553221.47,16533,9.44,73692.0,-1.99,-5.31,-5.73,0,*55
1515553222.72,16534,9.44,73690.5,-2.01,-5.31,-5.65,0,*57
1515553224.0,16535,9.44,73692.5,-1.99,-5.23,-5.65,0,*57
1515553225.27,16536,9.44,73694.8,-1.99,-5.19,-5.65,0,*5D
1515553226.54,16537,9.44,73684.3,-1.99,-5.23,-5.65,0,*55
1515553227.79,16538,9.44,73684.3,-2.01,-5.31,-5.65,0,*5B
1515553229.04,16539,9.44,73682.5,-1.99,-5.35,-5.85,0,*52
1515553230.28,16540,9.44,73688.5,-1.99,-5.35,-5.77,0,*51
1515553231.55,16541,9.44,73692.3,-1.99,-5.31,-5.77,0,*54
1515553232.82,16542,9.44,73694.0,-1.99,-5.31,-5.73,0,*53
1515553234.09,16543,9.44,73696.5,-1.99,-5.31,-5.77,0,*56
1515553235.34,16544,9.44,73694.0,-2.01,-5.31,-5.77,0,*53
1515553236.55,16545,9.44,73696.3,-2.01,-5.35,-5.77,0,*56
1515553237.83,16546,9.44,73696.8,-1.99,-5.31,-5.77,0,*53
1515553239.1,16547,9.44,73692.3,-1.99,-5.23,-5.73,0,*55
1515553240.34,16548,9.44,73688.8,-1.99,-5.35,-5.77,0,*59
1515553241.58,16549,9.44,73688.0,-1.99,-5.35,-5.77,0,*58
1515553242.85,16550,9.44,73690.3,-1.99,-5.31,-5.77,0,*54
1515553244.13,16551,9.44,73692.3,-1.99,-5.23,-5.77,0,*56
1515553245.37,16552,9.44,73692.3,-2.01,-5.31,-5.77,0,*54
1515553246.59,16553,9.44,73694.5,-2.01,-5.35,-5.85,0,*5C
1515553247.83,16554,9.44,73692.8,-1.99,-5.39,-5.77,0,*58
1515553249.06,16555,9.44,73690.5,-2.01,-5.39,-5.85,0,*56
1515553250.31,16556,9.44,73692.5,-1.99,-5.39,-5.85,0,*57
1515553251.53,16557,9.44,73692.5,-2.01,-5.39,-5.85,0,*54
1515553252.75,16558,9.44,73694.5,-2.01,-5.39,-5.85,0,*5B
1515553254.0,16559,9.44,73694.5,-1.99,-5.39,-5.85,0,*58
1515553255.22,16560,9.44,73692.3,-2.01,-5.39,-5.77,0,*5D
1515553256.47,16561,9.44,73694.8,-1.99,-5.39,-5.85,0,*53
1515553257.72,16562,9.44,73690.5,-1.99,-5.39,-5.85,0,*50
1515553258.97,16563,9.44,73686.8,-1.99,-5.51,-5.85,0,*5F
1515553260.19,16564,9.44,73684.8,-2.01,-5.47,-5.85,0,*5D
1515553261.45,16565,9.44,73688.3,-1.99,-5.47,-5.89,0,*52
1515553262.69,16566,9.44,73692.5,-1.99,-5.39,-5.89,0,*58
1515553263.92,16567,9.44,73692.0,-2.01,-5.39,-5.85,0,*57
1515553265.14,16568,9.44,73694.0,-2.01,-5.39,-5.85,0,*58
1515553266.35,16569,9.44,73692.0,-2.01,-5.39,-5.77,0,*54
1515553267.61,16570,9.44,73692.8,-1.99,-5.35,-5.85,0,*5F
1515553268.85,16571,9.44,73690.5,-1.99,-5.35,-5.85,0,*5E
1515553270.08,16572,9.44,73692.5,-2.01,-5.35,-5.85,0,*5F
1515553271.3,16573,9.44,73688.5,-2.01,-5.39,-5.85,0,*52
1515553272.51,16574,9.44,73694.0,-2.01,-5.35,-5.77,0,*54
1515553273.73,16575,9.44,73690.8,-2.01,-5.39,-5.77,0,*59
1515553274.98,16576,9.44,73694.3,-1.99,-5.35,-5.85,0,*59
1515553276.22,16577,9.44,73694.8,-1.99,-5.35,-5.77,0,*55
1515553277.46,16578,9.44,73690.8,-1.99,-5.35,-5.77,0,*5A
1515553278.71,16579,9.44,73690.3,-1.99,-5.35,-5.77,0,*5B
1515553279.98,16580,9.44,73688.3,-1.99,-5.31,-5.73,0,*5D
1515553281.25,16581,9.44,73692.5,-1.99,-5.31,-5.77,0,*58
1515553282.49,16582,9.44,73692.0,-2.01,-5.31,-5.73,0,*5D
1515553283.76,16583,9.44,73692.5,-1.99,-5.31,-5.73,0,*5E
1515553285.03,16584,9.44,73690.3,-1.99,-5.31,-5.73,0,*59
1515553286.31,16585,9.44,73692.0,-1.99,-5.23,-5.73,0,*5B
1515553287.58,16586,9.44,73696.8,-1.99,-5.31,-5.73,0,*5B
1515553288.85,16587,9.44,73692.5,-1.99,-5.31,-5.73,0,*5A
1515553290.12,16588,9.44,73692.5,-1.99,-5.31,-5.77,0,*51
1515553291.36,16589,9.44,73692.0,-1.99,-5.39,-5.73,0,*5C
1515553292.61,16590,9.44,73692.8,-1.99,-5.35,-5.65,0,*5F
1515553293.85,16591,9.44,73684.8,-1.99,-5.35,-5.73,0,*59
1515553295.1,16592,9.44,73686.8,-1.99,-5.35,-5.85,0,*53
1515553296.31,16593,9.44,73690.3,-2.01,-5.35,-5.77,0,*5D
1515553297.56,16594,9.44,73686.3,-1.99,-5.39,-5.77,0,*54
1515553298.8,16595,9.44,73690.3,-1.99,-5.35,-5.77,0,*59
1515553300.01,16596,9.44,73690.8,-2.01,-5.39,-5.77,0,*54
1515553301.26,16597,9.44,73692.5,-1.99,-5.39,-5.73,0,*53
1515553302.47,16598,9.44,73694.5,-2.01,-5.35,-5.77,0,*56
1515553303.71,16599,9.44,73692.5,-1.99,-5.39,-5.77,0,*59
1515553304.94,16600,9.44,73698.3,-2.01,-5.47,-5.85,0,*5C
1515553306.16,16601,9.44,73702.5,-2.01,-5.47,-5.85,0,*5D
1515553307.41,16602,9.44,73694.8,-1.99,-5.39,-5.85,0,*55
1515553308.64,16603,9.44,73696.3,-2.01,-5.47,-5.85,0,*5F
1515553309.89,16604,9.44,73696.0,-1.99,-5.47,-5.85,0,*5A
1515553311.12,16605,9.44,73692.8,-2.01,-5.51,-5.89,0,*52
1515553312.34,16606,9.44,73694.5,-2.01,-5.47,-5.89,0,*56
1515553313.56,16607,9.44,73694.3,-2.01,-5.47,-5.89,0,*57
1515553314.81,16608,9.44,73694.0,-1.99,-5.47,-5.89,0,*5A
1515553316.04,16609,9.44,73694.3,-2.01,-5.47,-5.89,0,*59
1515553317.26,16610,9.44,73690.5,-2.01,-5.47,-5.89,0,*51
1515553318.51,16611,9.5,73696.5,-1.99,-5.39,-5.85,0,*57
1515553319.74,16612,9.44,73692.0,-2.01,-5.47,-5.85,0,*5F
1515553320.96,16613,9.44,73692.0,-2.01,-5.51,-5.85,0,*59
1515553322.19,16614,9.44,73692.3,-2.01,-5.51,-5.89,0,*52
1515553323.44,16615,9.44,73694.8,-1.99,-5.51,-5.89,0,*51
1515553324.69,16616,9.44,73692.5,-1.99,-5.51,-5.89,0,*52
1515553325.93,16617,9.44,73688.5,-1.99,-5.65,-5.97,0,*5B
1515553327.21,16618,9.44,73690.5,-1.99,-5.61,-5.89,0,*5F
1515553328.46,16619,9.44,73694.5,-1.99,-5.51,-5.89,0,*5D
1515553329.68,16620,9.44,73692.8,-2.01,-5.51,-5.89,0,*55
1515553330.94,16621,9.44,73692.5,-1.99,-5.51,-5.89,0,*56
1515553332.16,16622,9.44,73696.0,-1.99,-5.51,-5.97,0,*5A
1515553333.38,16623,9.44,73694.5,-2.01,-5.51,-5.89,0,*56
1515553334.65,16624,9.44,73692.5,-1.99,-5.61,-5.89,0,*50
1515553335.93,16625,9.44,73692.0,-1.99,-5.65,-5.89,0,*55
1515553337.18,16626,9.44,73694.5,-1.99,-5.51,-5.89,0,*51
1515553338.4,16627,9.44,73694.3,-1.99,-5.51,-5.97,0,*5F
1515553339.65,16628,9.44,73692.0,-2.01,-5.65,-5.89,0,*5A
1515553340.9,16629,9.44,73694.0,-2.01,-5.61,-5.89,0,*5F
1515553342.17,16630,9.44,73692.5,-1.99,-5.65,-5.89,0,*51
1515553343.39,16631,9.44,73692.8,-2.01,-5.65,-5.97,0,*5D
1515553344.6,16632,9.44,73694.8,-2.01,-5.61,-5.97,0,*5A
1515553345.84,16633,9.44,73694.5,-1.99,-5.65,-5.97,0,*5D
1515553347.05,16634,9.44,73692.5,-2.01,-5.73,-6.01,0,*53
1515553348.27,16635,9.44,73692.8,-2.01,-5.65,-5.97,0,*59
1515553349.52,16636,9.44,73694.5,-1.99,-5.65,-6.01,0,*54
1515553350.73,16637,9.44,73694.3,-2.01,-5.65,-6.09,0,*5F
1515553351.94,16638,9.44,73692.8,-2.01,-5.73,-6.09,0,*57
1515553353.15,16639,9.44,73688.0,-2.01,-5.73,-6.01,0,*5E
1515553354.37,16640,9.44,73696.3,-2.01,-5.65,-5.97,0,*5B
1515553355.59,16641,9.44,73694.5,-2.01,-5.65,-6.01,0,*56
1515553356.8,16642,9.44,73692.0,-2.01,-5.65,-6.01,0,*55
1515553358.05,16643,9.44,73692.5,-1.99,-5.77,-6.09,0,*5D
1515553359.29,16644,9.44,73696.0,-1.99,-5.77,-6.09,0,*5A
1515553360.5,16645,9.44,73690.3,-2.01,-5.73,-6.09,0,*5D
1515553361.71,16646,9.44,73690.5,-2.01,-5.73,-6.01,0,*56
1515553362.93,16647,9.44,73690.3,-2.01,-5.77,-6.01,0,*53
1515553364.14,16648,9.44,73690.8,-2.01,-5.73,-6.09,0,*50
1515553365.38,16649,9.44,73694.3,-1.99,-5.77,-6.01,0,*5F
1515553366.6,16650,9.44,73688.8,-2.01,-5.77,-6.13,0,*56
1515553367.82,16651,9.44,73690.3,-2.01,-5.77,-6.09,0,*5C
1515553369.03,16652,9.44,73690.0,-2.01,-5.73,-6.09,0,*5B
1515553370.24,16653,9.44,73694.8,-2.01,-5.73,-6.09,0,*5A
1515553371.48,16654,9.44,73688.8,-1.99,-5.73,-6.09,0,*5F
1515553372.72,16655,9.44,73690.5,-1.99,-5.77,-6.09,0,*5A
1515553373.96,16656,9.44,73688.3,-2.01,-5.73,-6.19,0,*5E
1515553375.21,16657,9.44,73688.3,-2.01,-5.77,-6.19,0,*5B
1515553376.45,16658,9.44,73692.0,-2.01,-5.73,-6.19,0,*50
1515553377.7,16659,9.44,73688.5,-2.01,-5.77,-6.19,0,*55
1515553378.91,16660,9.44,73690.5,-2.01,-5.77,-6.13,0,*55
1515553380.13,16661,9.44,73688.0,-2.01,-5.77,-6.13,0,*54
1515553381.35,16662,9.44,73690.0,-2.01,-5.77,-6.13,0,*57
1515553382.56,16663,9.5,73692.5,-2.01,-5.77,-6.13,0,*56
1515553383.78,16664,9.44,73690.5,-2.01,-5.77,-6.13,0,*51
1515553385.02,16665,9.44,73690.8,-1.99,-5.73,-6.09,0,*5D
1515553386.23,16666,9.44,73692.0,-2.01,-5.77,-6.09,0,*58
1515553387.45,16667,9.44,73688.5,-2.01,-5.77,-6.09,0,*59
1515553388.67,16668,9.44,73692.0,-2.01,-5.77,-6.13,0,*5D
1515553389.88,16669,9.44,73688.0,-2.01,-5.73,-6.13,0,*58
1515553391.09,16670,9.44,73688.5,-2.01,-5.73,-6.09,0,*5B
1515553392.3,16671,9.44,73692.0,-2.01,-5.77,-6.09,0,*5E
1515553393.52,16672,9.44,73688.8,-2.01,-5.77,-6.13,0,*56
1515553394.74,16673,9.44,73690.0,-2.01,-5.77,-6.09,0,*5C
1515553395.95,16674,9.44,73692.3,-2.01,-5.73,-6.13,0,*54
1515553397.17,16675,9.44,73694.3,-2.05,-5.81,-6.13,0,*5C
1515553398.39,16676,9.44,73692.3,-2.01,-5.77,-6.13,0,*52
1515553399.6,16677,9.44,73696.3,-2.01,-5.77,-6.09,0,*58
1515553400.81,16678,9.44,73692.0,-2.01,-5.73,-6.09,0,*53
1515553402.02,16679,9.44,73692.8,-2.01,-5.73,-6.09,0,*52
1515553403.24,16680,9.44,73694.8,-2.01,-5.77,-6.09,0,*50
1515553404.48,16681,9.44,73696.0,-1.99,-5.73,-6.13,0,*5C
1515553405.69,16682,9.44,73696.8,-2.01,-5.73,-6.13,0,*5D
1515553406.91,16683,9.44,73694.8,-2.01,-5.77,-6.13,0,*58
1515553408.12,16684,9.44,73698.3,-2.01,-5.77,-6.09,0,*54
1515553409.34,16685,9.44,73696.5,-2.01,-5.77,-6.01,0,*5D
1515553410.55,16686,9.44,73698.3,-2.01,-5.73,-6.09,0,*52
1515553411.77,16687,9.44,73698.3,-2.01,-5.77,-6.09,0,*57
1515553412.98,16688,9.44,73698.0,-2.01,-5.73,-6.01,0,*54
1515553414.19,16689,9.44,73698.5,-2.01,-5.77,-6.01,0,*51
1515553415.44,16690,9.44,73696.8,-1.99,-5.77,-6.09,0,*53
1515553416.67,16691,9.44,73694.8,-1.99,-5.73,-6.01,0,*5E
1515553417.89,16692,9.44,73702.5,-2.01,-5.77,-6.01,0,*5B
1515553419.14,16693,9.44,73700.0,-1.99,-5.77,-6.01,0,*58
1515553420.37,16694,9.44,73698.8,-1.99,-5.73,-6.01,0,*5B
1515553421.61,16695,9.44,73698.3,-1.99,-5.73,-6.01,0,*5A
1515553422.85,16696,9.44,73696.5,-1.99,-5.73,-6.01,0,*59
1515553424.06,16697,9.44,73696.0,-2.01,-5.73,-6.01,0,*5A
1515553425.27,16698,9.44,73696.3,-2.01,-5.73,-6.01,0,*55
1515553426.48,16699,9.5,73698.3,-2.01,-5.73,-5.97,0,*58
1515553427.72,16700,9.44,73698.3,-2.01,-5.73,-5.89,0,*56
1515553428.93,16701,9.44,73698.0,-2.01,-5.73,-5.97,0,*58
1515553430.15,16702,9.44,73698.5,-2.01,-5.77,-5.97,0,*5F
1515553431.36,16703,9.44,73698.5,-2.01,-5.73,-5.97,0,*5A
1515553432.6,16704,9.44,73696.5,-1.99,-5.61,-5.97,0,*5C
1515553433.85,16705,9.44,73698.8,-2.01,-5.65,-5.89,0,*54
1515553435.1,16706,9.44,73696.8,-2.01,-5.65,-5.89,0,*57
1515553436.35,16707,9.44,73696.8,-2.01,-5.65,-5.89,0,*56
1515553437.62,16708,9.44,73694.8,-1.99,-5.61,-5.89,0,*5F
1515553438.84,16709,9.44,73696.0,-2.01,-5.51,-5.89,0,*5F
1515553440.09,16710,9.44,73698.5,-1.99,-5.51,-5.89,0,*55
1515553441.32,16711,9.5,73698.5,-2.01,-5.51,-5.89,0,*56
1515553442.57,16712,9.44,73698.0,-1.99,-5.51,-5.89,0,*57
1515553443.8,16713,9.44,73698.0,-2.01,-5.51,-5.89,0,*54
1515553445.05,16714,9.44,73696.3,-1.99,-5.51,-5.89,0,*51
1515553446.3,16715,9.44,73696.5,-1.99,-5.47,-5.89,0,*57
1515553447.55,16716,9.44,73698.5,-1.99,-5.51,-5.89,0,*53
1515553448.8,16717,9.44,73698.3,-1.99,-5.47,-5.89,0,*55
1515553450.06,16718,9.44,73696.8,-1.99,-5.51,-5.85,0,*51
1515553451.31,16719,9.44,73698.8,-1.99,-5.51,-5.85,0,*50
1515553452.53,16720,9.44,73698.0,-2.01,-5.51,-5.85,0,*58
1515553453.79,16721,9.44,73698.0,-1.99,-5.51,-5.89,0,*57
1515553455.04,16722,9.44,73698.0,-1.99,-5.51,-5.89,0,*54
1515553456.29,16723,9.44,73696.3,-1.99,-5.47,-5.89,0,*52
1515553457.51,16724,9.44,73696.8,-2.01,-5.51,-5.89,0,*50
1515553458.77,16725,9.44,73696.0,-1.99,-5.47,-5.89,0,*54
1515553459.99,16726,9.44,73694.0,-1.99,-5.51,-5.97,0,*5F
1515553461.18,16727,9.44,73698.3,-2.01,-5.51,-5.97,0,*5C
1515553462.4,16728,9.44,73694.5,-1.99,-5.47,-5.97,0,*56
1515553463.62,16729,9.44,73696.0,-1.99,-5.51,-5.97,0,*50
1515553464.87,16730,9.44,73698.0,-1.99,-5.51,-5.89,0,*57
1515553466.14,16731,9.44,73694.3,-1.99,-5.61,-5.89,0,*55
1515553467.38,16732,9.44,73696.3,-1.99,-5.61,-5.97,0,*59
1515553468.64,16733,9.44,73694.8,-1.99,-5.51,-5.89,0,*54
1515553469.89,16734,9.44,73698.3,-1.99,-5.51,-5.89,0,*53
1515553471.11,16735,9.44,73696.3,-1.99,-5.51,-5.97,0,*5D
1515553472.36,16736,9.44,73698.5,-1.99,-5.47,-5.89,0,*56
1515553473.61,16737,9.44,73698.5,-1.99,-5.51,-5.89,0,*50
1515553474.86,16738,9.44,73702.0,-1.99,-5.51,-5.89,0,*5F
1515553476.12,16739,9.44,73698.0,-1.99,-5.51,-5.89,0,*5E
1515553477.37,16740,9.44,73700.3,-1.99,-5.51,-5.89,0,*50
1515553478.59,16741,9.44,73698.3,-1.99,-5.47,-5.97,0,*59
1515553479.78,16742,9.44,73696.3,-2.01,-5.51,-5.97,0,*5F
1515553481.03,16743,9.44,73698.5,-1.99,-5.47,-5.89,0,*54
1515553482.28,16744,9.44,73696.0,-1.99,-5.51,-5.89,0,*54
1515553483.53,16745,9.44,73696.0,-2.01,-5.61,-5.89,0,*54
1515553484.78,16746,9.44,73696.3,-1.99,-5.51,-5.89,0,*56
1515553486.03,16747,9.44,73694.0,-1.99,-5.51,-5.89,0,*57
1515553487.27,16748,9.44,73696.0,-1.99,-5.61,-5.97,0,*54
1515553488.49,16749,9.44,73698.5,-1.99,-5.51,-5.97,0,*56
1515553489.75,16750,9.44,73700.0,-1.99,-5.51,-5.89,0,*51
1515553490.99,16751,9.44,73700.5,-1.99,-5.61,-5.97,0,*5C
1515553492.26,16752,9.44,73696.8,-1.99,-5.61,-5.89,0,*50
1515553493.5,16753,9.44,73694.8,-1.99,-5.61,-5.97,0,*5E
1515553494.75,16754,9.44,73698.0,-1.99,-5.51,-5.89,0,*55
1515553495.95,16755,9.44,73696.5,-2.01,-5.51,-5.97,0,*59
1515553497.2,16756,9.44,73694.3,-1.99,-5.51,-5.89,0,*57
1515553498.45,16757,9.44,73694.8,-1.99,-5.51,-5.89,0,*56
1515553499.67,16758,9.44,73698.3,-1.99,-5.51,-5.97,0,*56
1515553500.94,16759,9.44,73696.3,-1.99,-5.61,-5.89,0,*5B
1515553502.19,16760,9.44,73696.0,-1.99,-5.51,-5.89,0,*52
1515553503.45,16761,9.44,73692.0,-1.99,-5.51,-5.89,0,*53
1515553504.7,16762,9.44,73694.0,-1.99,-5.51,-5.89,0,*50
1515553505.95,16763,9.44,73696.5,-1.99,-5.51,-5.89,0,*51
1515553507.2,16764,9.44,73696.8,-1.99,-5.51,-5.89,0,*56
1515553508.45,16765,9.44,73696.3,-1.99,-5.51,-5.89,0,*57
1515553509.71,16766,9.44,73690.3,-1.99,-5.47,-5.89,0,*53
1515553510.93,16767,9.44,73692.8,-1.99,-5.51,-5.97,0,*5A
1515553512.18,16768,9.44,73694.5,-1.99,-5.51,-5.89,0,*5A
1515553513.42,16769,9.44,73696.3,-1.99,-5.61,-5.97,0,*57
1515553514.69,16770,9.44,73694.5,-1.99,-5.61,-5.89,0,*50
1515553515.93,16771,9.44,73692.3,-1.99,-5.61,-5.97,0,*5E
1515553517.18,16772,9.5,73700.3,-1.99,-5.51,-5.89,0,*51
1515553518.43,16773,9.44,73694.0,-1.99,-5.65,-5.97,0,*58
1515553519.7,16774,9.44,73700.0,-1.99,-5.61,-5.89,0,*54
1515553520.95,16775,9.44,73696.5,-1.99,-5.51,-5.89,0,*56
1515553522.2,16776,9.5,73698.0,-1.99,-5.51,-5.89,0,*55
1515553523.42,16777,9.44,73692.0,-1.99,-5.51,-5.97,0,*5B
1515553524.64,16778,9.44,73688.8,-1.99,-5.51,-5.97,0,*54
1515553525.89,16779,9.44,73692.0,-1.99,-5.65,-5.97,0,*52
1515553527.13,16780,9.44,73694.0,-1.99,-5.61,-5.97,0,*50
1515553528.37,16781,9.44,73696.8,-1.99,-5.61,-5.97,0,*51
1515553529.61,16782,9.44,73694.8,-1.99,-5.65,-6.01,0,*5A
1515553530.86,16783,9.44,73690.8,-1.99,-5.65,-6.01,0,*5B
1515553532.1,16784,9.44,73690.0,-1.99,-5.65,-5.97,0,*50
1515553533.34,16785,9.44,73688.5,-1.99,-5.61,-5.97,0,*55
1515553534.53,16786,9.44,73690.5,-2.01,-5.51,-5.97,0,*57
1515553535.81,16787,9.44,73694.5,-1.99,-5.65,-5.89,0,*5C
1515553537.03,16788,9.44,73692.8,-1.99,-5.51,-5.97,0,*5B
1515553538.25,16789,9.44,73688.3,-1.99,-5.51,-5.97,0,*5A
1515553539.5,16790,9.44,73690.0,-2.01,-5.61,-5.89,0,*5C
1515553540.72,16791,9.5,73694.3,-2.01,-5.47,-5.89,0,*59
1515553541.94,16792,9.44,73688.3,-2.01,-5.47,-5.89,0,*5A
1515553543.16,16793,9.44,73692.8,-1.99,-5.51,-5.97,0,*51
1515553544.41,16794,9.44,73690.3,-2.01,-5.61,-5.89,0,*58
1515553545.66,16795,9.44,73688.3,-1.99,-5.51,-5.89,0,*58
1515553546.88,16796,9.44,73686.8,-1.97,-5.47,-5.85,0,*5E
1515553548.11,16797,9.44,73692.8,-2.01,-5.47,-5.89,0,*5F
1515553549.36,16798,9.44,73688.8,-1.99,-5.47,-5.89,0,*52
1515553550.58,16799,9.44,73688.8,-2.01,-5.47,-5.89,0,*51
1515553551.83,16800,9.44,73684.3,-1.99,-5.47,-5.85,0,*50
1515553553.09,16801,9.44,73686.8,-1.99,-5.51,-5.85,0,*56
1515553554.31,16802,9.44,73688.0,-2.01,-5.47,-5.85,0,*50
1515553555.57,16803,9.44,73688.5,-1.99,-5.47,-5.85,0,*53
1515553556.82,16804,9.44,73688.0,-1.99,-5.47,-5.85,0,*54
1515553558.07,16805,9.44,73688.5,-1.99,-5.47,-5.85,0,*55
1515553559.32,16806,9.44,73690.0,-1.99,-5.47,-5.85,0,*56
1515553560.57,16807,9.44,73688.5,-1.99,-5.47,-5.85,0,*57
1515553561.82,16808,9.44,73684.3,-1.99,-5.47,-5.77,0,*55
1515553563.04,16809,9.44,73690.5,-2.01,-5.47,-5.85,0,*5B
1515553564.3,16810,9.44,73690.3,-1.99,-5.47,-5.85,0,*51
1515553565.51,16811,9.44,73690.8,-2.01,-5.47,-5.77,0,*5F
1515553566.77,16812,9.44,73690.5,-1.99,-5.47,-5.85,0,*53
1515553568.02,16813,9.44,73690.5,-1.99,-5.39,-5.85,0,*5B
1515553569.24,16814,9.44,73690.8,-2.01,-5.47,-5.85,0,*57
1515553570.49,16815,9.5,73694.0,-1.99,-5.47,-5.85,0,*54
1515553571.71,16816,9.44,73688.3,-2.01,-5.51,-5.77,0,*5F
1515553572.94,16817,9.44,73690.8,-2.01,-5.51,-5.85,0,*53
1515553574.16,16818,9.44,73694.5,-2.01,-5.47,-5.77,0,*56
1515553575.4,16819,9.44,73694.0,-1.99,-5.47,-5.77,0,*55
1515553576.65,16820,9.44,73694.0,-1.99,-5.51,-5.85,0,*55
1515553577.91,16821,9.44,73690.3,-1.99,-5.47,-5.85,0,*53
1515553579.16,16822,9.44,73688.0,-1.99,-5.47,-5.85,0,*50
1515553580.38,16823,9.44,73692.0,-2.01,-5.47,-5.85,0,*53
1515553581.61,16824,9.44,73692.8,-2.01,-5.51,-5.85,0,*53
1515553582.83,16825,9.44,73694.5,-2.01,-5.51,-5.85,0,*52
1515553584.08,16826,9.44,73690.8,-1.99,-5.47,-5.77,0,*59
1515553585.3,16827,9.44,73688.0,-2.01,-5.47,-5.77,0,*5A
1515553586.55,16828,9.5,73692.3,-1.99,-5.47,-5.85,0,*5A
1515553587.8,16829,9.44,73690.8,-1.99,-5.39,-5.85,0,*52
1515553589.05,16830,9.44,73690.5,-1.99,-5.47,-5.85,0,*53
1515553590.3,16831,9.44,73692.8,-1.99,-5.47,-5.85,0,*52
1515553591.55,16832,9.44,73690.8,-1.99,-5.35,-5.77,0,*59
1515553592.8,16833,9.44,73690.5,-1.99,-5.39,-5.85,0,*59
1515553594.05,16834,9.44,73690.3,-1.99,-5.47,-5.85,0,*57
1515553595.29,16835,9.44,73690.8,-1.99,-5.47,-5.77,0,*5B
1515553596.52,16836,9.44,73690.3,-2.01,-5.47,-5.85,0,*57
1515553597.73,16837,9.44,73686.5,-2.01,-5.39,-5.77,0,*52
1515553598.96,16838,9.44,73684.8,-2.01,-5.39,-5.85,0,*50
1515553600.17,16839,9.44,73686.3,-2.01,-5.35,-5.77,0,*50
1515553601.4,16840,9.44,73688.0,-2.01,-5.47,-5.85,0,*56
1515553602.65,16841,9.44,73690.3,-1.99,-5.47,-5.85,0,*55
1515553603.89,16842,9.44,73692.3,-1.99,-5.47,-5.77,0,*5B
1515553605.14,16843,9.44,73690.8,-1.99,-5.47,-5.77,0,*5A
1515553606.38,16844,9.44,73688.3,-1.99,-5.47,-5.77,0,*5D
1515553607.63,16845,9.44,73686.8,-1.99,-5.39,-5.85,0,*58
1515553608.85,16846,9.44,73690.8,-2.01,-5.39,-5.73,0,*50
1515553610.06,16847,9.44,73684.5,-2.01,-5.39,-5.77,0,*55
1515553611.31,16848,9.44,73684.8,-1.99,-5.39,-5.77,0,*58
1515553612.55,16849,9.44,73684.8,-1.99,-5.35,-5.77,0,*55
1515553613.77,16850,9.44,73684.5,-2.01,-5.35,-5.77,0,*5F
1515553614.98,16851,9.44,73688.5,-2.01,-5.35,-5.73,0,*5A
1515553616.2,16852,9.44,73688.5,-2.01,-5.47,-5.85,0,*55
1515553617.45,16853,9.44,73690.5,-1.99,-5.39,-5.85,0,*5F
1515553618.67,16854,9.44,73688.3,-2.01,-5.47,-5.77,0,*5E
1515553619.92,16855,9.44,73686.8,-1.99,-5.47,-5.85,0,*50
1515553621.15,16856,9.44,73690.5,-2.01,-5.47,-5.85,0,*51
1515553622.4,16857,9.44,73688.8,-1.99,-5.51,-5.85,0,*55
1515553623.66,16858,9.44,73692.0,-1.99,-5.51,-5.85,0,*5A
1515553624.88,16859,9.44,73690.0,-2.01,-5.51,-5.85,0,*59
1515553626.13,16860,9.44,73690.8,-1.99,-5.51,-5.85,0,*51
1515553627.36,16861,9.44,73686.3,-2.01,-5.51,-5.85,0,*52
1515553628.61,16862,9.44,73688.5,-1.99,-5.51,-5.85,0,*53
1515553629.86,16863,9.44,73690.8,-1.99,-5.47,-5.85,0,*55
1515553631.12,16864,9.44,73688.8,-1.99,-5.51,-5.85,0,*55
1515553632.37,16865,9.44,73688.5,-1.99,-5.51,-5.85,0,*54
1515553633.6,16866,9.44,73688.3,-2.01,-5.47,-5.85,0,*52
1515553634.81,16867,9.44,73688.0,-1.99,-5.47,-5.97,0,*52
1515553636.04,16868,9.44,73688.8,-1.99,-5.51,-5.97,0,*5A
1515553637.29,16869,9.44,73690.3,-1.99,-5.51,-5.89,0,*54
1515553638.54,16870,9.44,73688.5,-1.99,-5.51,-5.89,0,*5C
1515553639.76,16871,9.44,73684.8,-2.01,-5.47,-5.89,0,*58
1515553641.02,16872,9.44,73686.0,-1.99,-5.47,-5.89,0,*59
1515553642.21,16873,9.44,73684.3,-2.01,-5.47,-5.97,0,*55
1515553643.43,16874,9.44,73684.8,-2.01,-5.47,-5.89,0,*5D
1515553644.65,16875,9.44,73686.8,-2.01,-5.47,-5.89,0,*5C
1515553645.9,16876,9.44,73686.8,-1.99,-5.39,-5.89,0,*54
1515553647.15,16877,9.44,73684.3,-1.99,-5.47,-5.89,0,*5C
1515553648.38,16878,9.44,73684.3,-2.01,-5.35,-5.89,0,*54
1515553649.6,16879,9.44,73688.8,-2.01,-5.39,-5.89,0,*59
1515553650.85,16880,9.44,73686.5,-1.99,-5.39,-5.89,0,*5D
1515553652.1,16881,9.44,73686.0,-1.99,-5.39,-5.85,0,*50
1515553653.31,16882,9.44,73690.0,-2.01,-5.35,-5.77,0,*50
1515553654.53,16883,9.44,73688.3,-2.01,-5.35,-5.85,0,*5C
1515553655.78,16884,9.44,73688.8,-1.99,-5.35,-5.85,0,*59
1515553657.03,16885,9.44,73690.5,-2.01,-5.31,-5.85,0,*5E
1515553658.3,16886,9.44,73690.3,-1.99,-5.31,-5.77,0,*52
1515553659.55,16887,9.44,73688.3,-2.01,-5.31,-5.77,0,*51
1515553660.82,16888,9.44,73690.3,-1.99,-5.23,-5.77,0,*5F
1515553662.06,16889,9.44,73686.0,-2.01,-5.31,-5.73,0,*5B
1515553663.31,16890,9.44,73688.5,-2.01,-5.31,-5.73,0,*53
1515553664.58,16891,9.44,73688.8,-1.99,-5.31,-5.73,0,*50
1515553665.85,16892,9.44,73686.8,-1.99,-5.31,-5.73,0,*53
1515553667.09,16893,9.44,73686.3,-2.01,-5.31,-5.73,0,*50
1515553668.36,16894,9.44,73690.3,-1.99,-5.31,-5.73,0,*55
1515553669.61,16895,9.44,73688.8,-2.01,-5.31,-5.65,0,*51
1515553670.86,16896,9.44,73686.8,-2.01,-5.23,-5.65,0,*51
1515553672.1,16897,9.44,73686.8,-2.01,-5.31,-5.65,0,*53
1515553673.37,16898,9.44,73688.8,-1.99,-5.31,-5.73,0,*59
1515553674.65,16899,9.44,73686.8,-1.99,-5.31,-5.61,0,*5B
1515553675.9,16900,9.44,73690.3,-2.01,-5.31,-5.61,0,*58
1515553677.15,16901,9.44,73684.5,-2.01,-5.31,-5.65,0,*5D
1515553678.37,16902,9.44,73684.3,-2.01,-5.35,-5.73,0,*5D
1515553679.59,16903,9.44,73686.0,-2.01,-5.35,-5.61,0,*5F
1515553680.84,16904,9.5,73692.5,-2.01,-5.31,-5.65,0,*58
1515553682.08,16905,9.44,73688.5,-2.01,-5.31,-5.65,0,*59
1515553683.3,16906,9.44,73688.3,-2.01,-5.35,-5.65,0,*5E
1515553684.52,16907,9.44,73688.0,-2.01,-5.35,-5.65,0,*5F
1515553685.74,16908,9.44,73690.3,-2.01,-5.35,-5.65,0,*50
1515553686.99,16909,9.44,73684.0,-1.99,-5.35,-5.61,0,*57
1515553688.24,16910,9.44,73690.5,-1.99,-5.35,-5.61,0,*5F
1515553689.46,16911,9.44,73692.8,-2.01,-5.35,-5.61,0,*5C
1515553690.7,16912,9.44,73692.0,-1.99,-5.35,-5.73,0,*5E
1515553691.92,16913,9.44,73688.5,-2.01,-5.39,-5.65,0,*56
1515553693.13,16914,9.44,73688.8,-2.01,-5.39,-5.73,0,*56
1515553694.35,16915,9.44,73684.0,-2.01,-5.39,-5.73,0,*57
1515553695.59,16916,9.44,73684.5,-1.99,-5.47,-5.73,0,*5F
1515553696.81,16917,9.44,73686.0,-2.01,-5.39,-5.77,0,*51
1515553698.03,16918,9.44,73686.8,-2.01,-5.35,-5.77,0,*52
1515553699.24,16919,9.44,73684.5,-2.01,-5.39,-5.65,0,*5C
1515553700.49,16920,9.44,73686.0,-1.99,-5.35,-5.65,0,*58
1515553701.7,16921,9.44,73688.5,-2.01,-5.35,-5.77,0,*58
1515553702.95,16922,9.44,73692.0,-1.99,-5.39,-5.77,0,*55
1515553704.17,16923,9.44,73688.0,-2.01,-5.47,-5.85,0,*52
1515553705.4,16924,9.44,73686.8,-2.01,-5.39,-5.85,0,*5C
1515553706.64,16925,9.44,73684.0,-1.99,-5.47,-5.77,0,*5B
1515553707.86,16926,9.44,73686.0,-2.01,-5.39,-5.77,0,*53
1515553709.11,16927,9.44,73690.5,-1.99,-5.51,-5.85,0,*53
1515553710.33,16928,9.44,73692.3,-2.01,-5.51,-5.77,0,*53
1515553711.57,16929,9.44,73688.5,-1.99,-5.51,-5.77,0,*50
1515553712.83,16930,9.44,73690.8,-1.99,-5.51,-5.85,0,*55
1515553714.08,16931,9.44,73690.3,-1.99,-5.51,-5.85,0,*54
1515553715.3,16932,9.44,73686.5,-2.01,-5.47,-5.77,0,*5F
1515553716.52,16933,9.44,73690.8,-2.01,-5.47,-5.85,0,*53
1515553717.74,16934,9.44,73692.3,-2.01,-5.47,-5.77,0,*59
1515553718.96,16935,9.44,73694.8,-2.01,-5.47,-5.77,0,*58
1515553720.18,16936,9.44,73692.0,-2.01,-5.51,-5.77,0,*5C
1515553721.43,16937,9.44,73694.0,-1.99,-5.51,-5.85,0,*52